STARLINK-3799, 52382

Orbit data source: Space-Track

STARLINK-3799, 52382 is a payload satellite owned by SpaceX/Seattle (US) in LEO that was launched on Fri, 29 Apr 2022 UTC via an FALCON 9 launch vehicle from the Air Force Eastern Test Range (AFETR). Payload-class satellites include a variety of spacecraft equipped with specific instruments for various scientific and technological missions. These include communications satellites like Starlink; space stations such as the ISS; scientific satellites like the Hubble; Earth observation satellites from companies like Planet Labs, Umbra, and HawkEye 360; GPS; miniature CubeSats for education and research; and military/defense satellites.

Loading next visibility...
Identifier
52382, 2022-045BD
Orbit
LEO
Country
Flag of USUS
Related business
Manufacturer
SpaceX/Seattle
Mission
Operational Commercial Communications
Bus & Motor
STARLINK, Unknown motor
Mass
297 kg wet, ~275 kg dry
Launch date (UTC)
2022-04-29 (4 years ago)
Launch vehicle
FALCON 9
Launch site
Air Force Eastern Test Range (AFETR)
Object type
Payload
Rocket body
Debris
Shape & HBR
Box + 1 Pan, 10.1 m
Radar Cross Section
11.087 m², Large (>1 m²)

Expand to show TLE details & history
Last TLE update: 18 hours ago

TLE from 18 hours ago
0 STARLINK-3799
1 52382U 22045BD  25348.87679935  .00000985  00000-0  79955-4 0  9990
2 52382  53.2156 209.8704 0001341  83.9772 276.1373 15.08835045203125
Epoch: 2025-12-14T21:02Z
TLE epoch observation values (Epoch: 2025-12-14T21:02:35.463Z)
Latitude
-0.00003°
Longitude
170.43919°
Altitude
540.557 km
Speed
7.593 km/s
True Right ascension
13h 59m 28s
True Declination
0° 00' 00"
Sunlit
Object was in daylight at epoch
Visualization orbit readout
Latitude
Unknown
Longitude
Unknown
Altitude
Unknown
Speed
Unknown
Apparent Right ascension
Unknown
Apparent Declination
Unknown
Sunlit
N/A
Visualization observer readout
Local Sidereal Time
13:20:31
Azimuth
Unknown
Elevation
Unknown
Doppler factor
Unknown
Orbital elements
Apogee altitude
540.931 km
Perigee altitude
539.076 km
Semi-major axis
6,918.141 km
Eccentricity
0.00013
Inclination
53.2156°
RAAN
209.8704°
Arg. of periapsis
83.9772°
True anomaly
276.12202°
Mean anomaly
276.1373°
Eccentric anomaly
276.12966°
Mean motion
3.77189 °/min
Orbital period
95.44 mins
BSTAR
0.000079955
Loading maneuver chart data...
Computing Atmospheric mass density...
Loading historical data...
Loading historical data...
Loading historical data...
Loading historical data...
Loading historical data...
Loading historical data...
Loading historical data...

Documentation

Showing up to 5 results
|